星链-30872 (STARLINK-30872 )

导读

STARLINK-30872是美国太空探索技术公司星链卫星互联网星座的一员,于2023年11月3日发射,服务全球卫星互联网通信。星链通过低轨卫星组网,可为偏远地区、海洋等传统网络覆盖盲区提供宽带接入服务,该星入轨后补充了星座规模,提升了系统服务稳定性与覆盖能力,助力星链完成全球通信布局。

Basic Information
目录编号:
58225
目录名称:
STARLINK-30872
国际标识:
2023-170V
轨道中心:
EARTH
卫星名称:
星链-30872
卫星全名:
星链-30872 (STARLINK-30872 )
卫星状态:
在轨 (已飞行958 天)
发射日期:
2023-11-03 UTC
国别 :
美国 (US)
星等 :
--
Orbit Information
数据来源 国际轨道数据 AOE轨道数据
星历时间 2026-06-17T04:24:56+0800
1天前
查看轨道信息
2026-06-18T02:00:00+0800
16小时前
查看轨道信息
半长轴 6861.196km 6861.191km
偏心率 0.0001693 0.0001445
轨道倾角 43.004° 43.000°
近地点辐角 271.721° 306.961°
升交点赤经 212.304° 207.235°
平近点角 88.344° 324.684°
近地点 481.897km 482.062km
远地点 484.221km 484.046km
周期 94.267分钟 94.267分钟
每日圈数 15.27577 15.275785
Detailed Information
固有亮度:
5
最大亮度:
0.3
卫星平台:
Starlink v2.0 mini
覆盖范围:
全球
运营商:
太空探索技术公司
运营商所在国:
美国
制造商(研发单位):
太空探索技术公司
制造商所在国:
美国
使用方式:
暂无
Satellite Introduction
星链(Starlink)计划是由太空探索技术公司(SpaceX)提出的一个巨型低轨卫星互联网星座项目,计划在2019年至2024年间在太空搭建由约1.2万颗卫星组成的“星链”网络,其中1584颗将部署在地球上空550千米处的近地轨道,并从2020年开始工作。该卫星仍在工作。
2D Orbit Map
3D Orbit Map
Orbit Altitude Analysis Chart
Orbit Inclination Analysis Chart
Orbit Comprehensive Analysis Chart
View Comprehensive Chart